Hof Plauen, Germany

8:53 AM CEST on July 26, 2017 (GMT +0200)
Hof-Plauen

Weather History for EDQM - November, 2013

Change the Weather History Date:

Friday, November 1, 2013

  Actual Average Record
Temperature  
Mean Temperature 39 °F -  
Max Temperature 43 °F 39 °F 61 °F (2014)
Min Temperature 35 °F 32 °F 28 °F (1997)
Degree Days  
Heating Degree Days 26    
Moisture  
Dew Point 36 °F    
Average Humidity 87    
Maximum Humidity 93    
Minimum Humidity 77    
Precipitation  
Precipitation 0.00 in - - ()
Sea Level Pressure  
Sea Level Pressure 30.09 in    
Wind  
Wind Speed 8 mph ()    
Max Wind Speed 16 mph    
Max Gust Speed -    
Visibility 3.5 miles    
Events Fog    
Averages and records for this station are not official NWS values.
T = Trace of Precipitation, MM = Missing Value Source: Averaged Metar Reports

Daily Weather History Graph

Daily Weather History Graph

Search for Another Location

Airport or City:

Trip Planner

Search our weather history database for the weather conditions in past years. The results will help you decide how hot, cold, wet, or windy it might be!

Date:

Astronomy

Nov. 01, 2013 Rise Set
Actual Time 7:02 AM CET 4:48 PM CET
Civil Twilight 6:28 AM CET 5:22 PM CET
Nautical Twilight 5:50 AM CET 6:01 PM CET
Astronomical Twilight 5:12 AM CET 6:38 PM CET
Moon 4:24 AM CET (11/1) 3:41 PM CET (11/1)
Length of Visible Light 10h 53m
Length of Day
9h 45m
Waning Crescent, 5% of the Moon is Illuminated
Nov 1
Waning Crescent
Nov 3
New
Nov 10
First Quarter
Nov 17
Full
Nov 25
Last Quarter

Hourly Weather History & Observations

Time (CET) Temp. Windchill Dew Point Humidity Pressure Visibility Wind Dir Wind Speed Gust Speed Precip Events Conditions
12:20 AM 35.6 °F 28.0 °F 32.0 °F 87% 30.15 in 6.2 mi SSW 10.4 mph - N/A   Unknown
12:50 AM 35.6 °F 29.9 °F 32.0 °F 87% 30.15 in 6.2 mi SSE 6.9 mph - N/A   Unknown
1:00 AM 39 °F - 35 °F 80% 30.19 in 7 mi South 8.9 mph - -   Overcast
1:20 AM 37.4 °F 32.1 °F 35.6 °F 93% 30.15 in 4.3 mi South 6.9 mph - N/A   Mist
1:50 AM 39.2 °F 34.2 °F 35.6 °F 87% 30.15 in 3.1 mi SSW 6.9 mph - N/A   Mist
2:00 AM 40 °F - 37 °F 84% 30.18 in 4 mi SSW 8.9 mph - -   Mist
2:20 AM 37.4 °F 30.8 °F 35.6 °F 93% 30.12 in - SSW 9.2 mph - N/A   Mist
2:50 AM 39.2 °F 32.0 °F 35.6 °F 87% 30.12 in - SSW 11.5 mph - N/A   Mist
3:00 AM 40 °F - 37 °F 85% 30.17 in 4 mi SSW 6.7 mph - -   Mist
3:20 AM 39.2 °F 30.8 °F 35.6 °F 87% 30.12 in 3.1 mi SW 15.0 mph - N/A   Mist
3:50 AM 37.4 °F 28.2 °F 33.8 °F 87% 30.12 in 1.8 mi SW 16.1 mph - N/A   Mist
4:20 AM 37.4 °F 28.5 °F 33.8 °F 87% 30.12 in 0.7 mi SW 15.0 mph - N/A   Mostly Cloudy
4:50 AM 37.4 °F 29.3 °F 33.8 °F 87% 30.12 in 0.7 mi SSW 12.7 mph - N/A Fog Fog
5:00 AM 37 °F - 36 °F 92% 30.18 in 2 mi SW 8.9 mph - -   Mist
5:20 AM 37.4 °F 28.9 °F 33.8 °F 87% 30.12 in 1.1 mi SSW 13.8 mph - N/A   Overcast
5:50 AM 37.4 °F 30.8 °F 35.6 °F 93% 30.12 in 1.4 mi SSW 9.2 mph - N/A   Overcast
6:20 AM 37.4 °F 30.8 °F 35.6 °F 93% 30.12 in 1.6 mi SSW 9.2 mph - N/A   Overcast
6:50 AM 37.4 °F 30.8 °F 35.6 °F 93% 30.12 in 1.5 mi SSW 9.2 mph - N/A   Overcast
7:20 AM 37.4 °F 32.8 °F 35.6 °F 93% 30.15 in 1.5 mi SSW 5.8 mph - N/A   Overcast
7:50 AM 37.4 °F 30.8 °F 35.6 °F 93% 30.15 in 1.4 mi SSW 9.2 mph - N/A   Overcast
8:00 AM 38 °F - 37 °F 93% 30.20 in 2 mi SSW 6.7 mph - -   Mist
8:20 AM 39.2 °F 33.0 °F 37.4 °F 93% 30.15 in 1.7 mi South 9.2 mph - N/A   Overcast
8:50 AM 39.2 °F 32.0 °F 37.4 °F 93% 30.15 in - South 11.5 mph - N/A   Mostly Cloudy
9:00 AM 39 °F - 37 °F 89% 30.19 in 4 mi South 8.9 mph - -   Mist
9:20 AM 39.2 °F 32.0 °F 35.6 °F 87% 30.15 in - SSW 11.5 mph - N/A   Mostly Cloudy
9:50 AM 41.0 °F 33.5 °F 37.4 °F 87% 30.12 in 3.1 mi SSW 13.8 mph - N/A   Mostly Cloudy
10:20 AM 41.0 °F 34.3 °F 37.4 °F 87% 30.12 in 3.1 mi SSW 11.5 mph - N/A   Mostly Cloudy
10:50 AM 41.0 °F 33.1 °F 37.4 °F 87% 30.12 in 3.1 mi SSW 15.0 mph - N/A   Mostly Cloudy
11:00 AM 42 °F - 38 °F 80% 30.16 in 6 mi SW 8.9 mph - -   Overcast
11:20 AM 42.8 °F 37.0 °F 37.4 °F 81% 30.12 in 3.1 mi SSW 10.4 mph - N/A   Mostly Cloudy
11:50 AM 42.8 °F 37.5 °F 37.4 °F 81% 30.12 in 3.7 mi SSW 9.2 mph - N/A   Unknown
12:00 PM 42 °F - 38 °F 81% 30.15 in 8 mi SW 8.9 mph - -   Overcast
12:20 PM 42.8 °F 37.0 °F 37.4 °F 81% 30.12 in 4.3 mi SSW 10.4 mph - N/A   Unknown
12:50 PM 42.8 °F 37.0 °F 37.4 °F 81% 30.09 in 4.3 mi South 10.4 mph - N/A   Unknown
1:00 PM 43 °F - 38 °F 77% 30.13 in 9 mi SSW 8.9 mph - -   Overcast
1:20 PM 42.8 °F 36.6 °F 37.4 °F 81% 30.09 in 5.0 mi SSW 11.5 mph - N/A   Partly Cloudy
1:50 PM 42.8 °F 36.6 °F 37.4 °F 81% 30.09 in 4.3 mi SSW 11.5 mph - N/A   Partly Cloudy
2:00 PM 43 °F - 38 °F 77% 30.12 in 6 mi South 8.9 mph - -   Overcast
2:20 PM 42.8 °F 38.0 °F 37.4 °F 81% 30.06 in 5.0 mi South 8.1 mph - N/A   Partly Cloudy
2:50 PM 42.8 °F 38.0 °F 37.4 °F 81% 30.06 in 5.6 mi SSW 8.1 mph - N/A   Partly Cloudy
3:00 PM 43 °F - 38 °F 77% 30.09 in 7 mi SSW 6.7 mph - -  
3:20 PM 42.8 °F 39.3 °F 37.4 °F 81% 30.06 in 6.2 mi South 5.8 mph - N/A   Partly Cloudy
3:50 PM 42.8 °F 38.6 °F 37.4 °F 81% 30.04 in 6.2 mi South 6.9 mph - N/A   Partly Cloudy
4:50 PM 41.0 °F 38.0 °F 37.4 °F 87% 30.04 in 3.7 mi South 4.6 mph - N/A   Mostly Cloudy
5:00 PM 41 °F - 38 °F 85% 30.07 in 5 mi South 4.5 mph - -   Overcast
5:20 PM 41.0 °F 37.1 °F 37.4 °F 87% 30.04 in 3.1 mi SE 5.8 mph - N/A   Mostly Cloudy
5:50 PM 41.0 °F 39.0 °F 37.4 °F 87% 30.04 in 3.1 mi SSE 3.5 mph - N/A   Mostly Cloudy
6:00 PM 41 °F - 38 °F 84% 30.06 in 4 mi South 6.7 mph - -   Mist
6:20 PM 39.2 °F 35.9 °F 35.6 °F 87% 30.04 in - South 4.6 mph - N/A   Scattered Clouds
6:50 PM 39.2 °F 35.9 °F 35.6 °F 87% 30.01 in - SSE 4.6 mph - N/A   Scattered Clouds
7:00 PM 40 °F - 38 °F 88% 30.05 in 3 mi SSE 4.5 mph - -   Mist
7:20 PM 39.2 °F 37.0 °F 35.6 °F 87% 30.01 in - SSE 3.5 mph - N/A   Partly Cloudy
7:50 PM 39.2 °F 35.0 °F 37.4 °F 93% 30.01 in 2.2 mi South 5.8 mph - N/A   Mist
8:00 PM 40 °F - 38 °F 88% 30.04 in 3 mi South 6.7 mph - -   Mist
8:20 PM 39.2 °F 37.0 °F 35.6 °F 87% 30.01 in - SSE 3.5 mph - N/A   Scattered Clouds
8:50 PM 39.2 °F 35.9 °F 37.4 °F 93% 29.98 in - ESE 4.6 mph - N/A   Overcast
9:00 PM 40 °F - 38 °F 89% 30.01 in 2 mi SSE 4.5 mph - -   Mist
9:20 PM 39.2 °F 37.0 °F 35.6 °F 87% 29.98 in 1.9 mi SSE 3.5 mph - N/A   Mostly Cloudy
9:50 PM 37.4 °F 34.9 °F 35.6 °F 93% 29.95 in 1.4 mi South 3.5 mph - N/A   Partly Cloudy
10:20 PM 37.4 °F 34.9 °F 35.6 °F 93% 29.98 in 1.8 mi South 3.5 mph - N/A   Mostly Cloudy
10:50 PM 37.4 °F 34.9 °F 35.6 °F 93% 29.95 in 1.3 mi SSE 3.5 mph - N/A   Overcast
11:00 PM 39 °F - 37 °F 90% 29.98 in 3 mi South 6.7 mph - -   Mist
11:20 PM 37.4 °F 33.8 °F 35.6 °F 93% 29.95 in 1.7 mi South 4.6 mph - N/A   Partly Cloudy
11:50 PM 37.4 °F 34.9 °F 35.6 °F 93% 29.92 in 1.9 mi South 3.5 mph - N/A   Scattered Clouds